This demonstration page uses our WeatherBlox Daily Observations layout. Learn more.

Left ArrowRight Arrow

38.83388, -104.82136

Hourly Observations for January 22, 2017

Temp ( °F °C ) Dew Point ( °F °C ) Humidity (%) Winds ( mph kmh ) Pressure ( in mb ) Visibility ( mi km ) Precip ( " mm )
12:58 am 00:58 Clear 33 0.7 17 -8.4 51 51 NW 13 20 29.41 996 10 16 0.00 0.00
1:58 am 01:58 Clear 32 0.2 15 -9.6 48 48 WSW 5 7 29.45 997 10 16 0.00 0.00
2:58 am 02:58 Partly Cloudy 30 -1.2 15 -9.7 53 53 WNW 3 6 29.49 999 10 16 0.00 0.00
3:58 am 03:58 Cloudy 30 -0.9 14 -9.8 51 51 Calm 29.51 999 10 16 0.00 0.00
4:58 am 04:58 Mostly Clear 30 -1.3 14 -9.8 53 53 S 3 6 29.52 1000 10 16 0.00 0.00
5:58 am 05:58 Clear 30 -1.1 17 -8.5 58 58 S 3 6 29.56 1001 10 16 0.00 0.00
6:58 am 06:58 Clear 30 -1.1 14 -10 51 51 S 7 11 29.60 1002 10 16 0.00 0.00
7:58 am 07:58 Sunny 33 0.3 15 -9.2 49 49 S 3 6 29.61 1003 10 16 0.00 0.00
8:58 am 08:58 Sunny 34 1.3 15 -9.5 45 45 SE 9 15 29.65 1004 10 16 0.00 0.00
9:58 am 09:58 Sunny 36 2.1 14 -9.8 41 41 SE 13 20 29.64 1004 10 16 0.00 0.00
10:58 am 10:58 Sunny 36 2.3 12 -11.1 37 37 SE 8 13 29.65 1004 10 16 0.00 0.00
11:58 am 11:58 Sunny 38 3.4 11 -11.7 32 32 ESE 8 13 29.62 1003 10 16 0.00 0.00
12:58 pm 12:58 Sunny 38 3.5 6 -14.4 26 26 S 5 7 29.61 1003 10 16 0.00 0.00
1:58 pm 13:58 Partly Cloudy 40 4.3 5 -15.2 23 23 ESE 12 19 29.60 1002 10 16 0.00 0.00
2:58 pm 14:58 Mostly Cloudy 38 3.6 2 -16.6 21 21 SE 12 19 29.60 1003 10 16 0.00 0.00
3:58 pm 15:58 Cloudy 38 3.2 1 -17.4 21 21 SSE 12 19 29.62 1003 10 16 0.00 0.00
4:58 pm 16:58 Mostly Cloudy 36 2 4 -15.8 26 26 S 12 19 29.63 1004 10 16 0.00 0.00
5:58 pm 17:58 Mostly Cloudy 35 1.4 6 -14.6 30 30 SSW 9 15 29.63 1004 10 16 0.00 0.00
6:58 pm 18:58 Mostly Cloudy 32 0.2 9 -12.8 37 37 NNW 3 6 29.60 1003 10 16 0.00 0.00
7:58 pm 19:58 Mostly Cloudy 33 0.5 9 -12.9 36 36 NW 7 11 29.57 1002 10 16 0.00 0.00
8:58 pm 20:58 Partly Cloudy 33 0.3 8 -13.5 35 35 NNW 5 7 29.56 1001 10 16 0.00 0.00
9:58 pm 21:58 Mostly Cloudy 31 -0.4 10 -12.4 40 40 Calm 29.53 1000 10 16 0.00 0.00
10:58 pm 22:58 Clear 28 -2.1 12 -11 51 51 Calm 29.53 1000 10 16 0.00 0.00
11:58 pm 23:58 Mostly Cloudy 28 -2 12 -10.9 51 51 NW 3 6 29.51 999 10 16 0.00 0.00

Powered by AerisWeather